Wind from 149 at 1 knots gusting 6

Air temperature 23.9° C
Dewpoint 21.2° C

Last reported at 2014-Apr-23 08:51 UTC.
Time now 2014-Apr-23 09:46 UTC

Location: S 19°40' E 147°25'.
View on Google Maps.

See reports from other nearby stations

Tides Stations Pressure Air Temp Water Temp Dewpoint Dewpoint depression Visibility Wind Speed Wind Dir Waves Ship positions

  
sailing weather and tide predictions

DW9615 Home Hill AU weather

date/time (UTC)wind fromknots sea level pressurealtimeterstation pressurevisibilityair tempwater tempwave heightnotes
2014-Apr-23 08:51 149 1 gusting 6 23.9
2014-Apr-23 08:36 184 2 gusting 7 23.9
2014-Apr-23 08:21 197 2 gusting 7 24.4
2014-Apr-23 08:06 179 1 gusting 4 24.4
2014-Apr-23 07:51 162 2 gusting 6 25.0
2014-Apr-23 07:36 200 2 gusting 8 25.0
2014-Apr-23 07:21 159 0 gusting 4 25.6
2014-Apr-23 07:06 174 0 gusting 4 26.1
2014-Apr-23 06:51 240 0 gusting 3 26.7
2014-Apr-23 06:36 169 1 gusting 3 27.2
2014-Apr-23 06:22 190 1 gusting 3 27.2
2014-Apr-23 06:06 199 0 gusting 4 27.8
2014-Apr-23 05:51 131 1 gusting 5 27.8
2014-Apr-23 05:36 159 2 gusting 6 27.8
2014-Apr-23 05:21 222 0 gusting 6 27.2
2014-Apr-23 05:05 158 2 gusting 8 27.2
2014-Apr-23 04:50 178 1 gusting 7 27.8
2014-Apr-23 04:35 140 1 gusting 5 28.3
2014-Apr-23 04:20 164 2 gusting 6 28.3
2014-Apr-23 04:05 171 2 gusting 8 27.8
2014-Apr-23 03:50 170 2 gusting 7 28.3
2014-Apr-23 03:35 157 4 gusting 6 28.3
2014-Apr-23 03:20 149 3 gusting 8 28.3
2014-Apr-23 03:05 151 2 gusting 6 27.8
2014-Apr-23 02:50 143 3 gusting 8 27.8
2014-Apr-23 02:35 143 4 gusting 7 27.8
2014-Apr-23 02:20 130 3 gusting 8 27.8
2014-Apr-23 02:05 179 4 gusting 8 28.3
2014-Apr-23 01:50 150 3 gusting 6 27.8
2014-Apr-23 01:35 136 2 gusting 7 27.2
2014-Apr-23 01:20 149 2 gusting 7 26.7
2014-Apr-23 01:05 190 3 gusting 8 26.7
2014-Apr-23 00:50 156 2 gusting 5 26.7
2014-Apr-23 00:35 159 0 gusting 5 26.7
2014-Apr-23 00:20 119 2 gusting 5 26.1
2014-Apr-23 00:05 192 3 gusting 6 26.1
2014-Apr-22 23:50 165 2 gusting 4 25.0
2014-Apr-22 23:35 166 1 gusting 4 25.0
2014-Apr-22 23:20 189 1 gusting 4 24.4
2014-Apr-22 23:05 149 1 gusting 3 24.4
2014-Apr-22 22:50 143 23.9
2014-Apr-22 22:34 164 22.8
2014-Apr-22 22:19 187 22.8
2014-Apr-22 22:04 157 22.2
2014-Apr-22 21:49 190 22.2
2014-Apr-22 21:34 192 21.7
2014-Apr-22 21:19 255 21.1
2014-Apr-22 21:04 263 20.6
2014-Apr-22 20:49 263 20.6
2014-Apr-22 20:34 259 20.6
2014-Apr-22 20:19 182 20.6
2014-Apr-22 20:04 174 20.6
2014-Apr-22 19:49 171 20.0
2014-Apr-22 19:34 174 20.0
2014-Apr-22 19:19 162 20.0
2014-Apr-22 19:04 177 20.0
2014-Apr-22 18:49 262 20.6
2014-Apr-22 18:34 208 20.6
2014-Apr-22 18:19 249 20.6
2014-Apr-22 18:04 249 20.6
2014-Apr-22 17:49 188 20.6
2014-Apr-22 17:34 254 20.6
2014-Apr-22 17:19 272 20.6
2014-Apr-22 17:04 270 20.6
2014-Apr-22 16:49 271 20.6
2014-Apr-22 16:34 272 21.1
2014-Apr-22 16:19 195 21.1
2014-Apr-22 16:04 158 21.1
2014-Apr-22 15:49 161 21.1
2014-Apr-22 15:34 249 21.1
2014-Apr-22 15:19 164 21.7
2014-Apr-22 15:04 154 21.1
2014-Apr-22 14:49 163 21.1
2014-Apr-22 14:34 142 21.1
2014-Apr-22 14:19 137 21.1
2014-Apr-22 14:03 117 21.1
2014-Apr-22 13:48 130 21.1
2014-Apr-22 13:33 145 21.1
2014-Apr-22 13:18 146 21.7
2014-Apr-22 13:03 181 21.7
2014-Apr-22 12:48 199 21.7
2014-Apr-22 12:33 180 0 gusting 2 21.7
2014-Apr-22 12:18 171 21.7
2014-Apr-22 12:03 164 22.2
2014-Apr-22 11:48 185 22.2
2014-Apr-22 11:33 146 22.2
2014-Apr-22 11:18 154 22.2
2014-Apr-22 11:03 130 22.2
2014-Apr-22 10:48 152 22.2
2014-Apr-22 10:33 158 22.2
2014-Apr-22 10:18 179 22.8
2014-Apr-22 10:03 101 22.8
2014-Apr-22 09:48 084 22.8
2014-Apr-22 09:33 102 22.8
2014-Apr-22 09:18 170 22.8
2014-Apr-22 09:03 169 22.8
2014-Apr-22 08:48 183 22.8
2014-Apr-22 08:33 164 22.8
2014-Apr-22 08:18 095 23.3
2014-Apr-22 08:03 095 23.9
2014-Apr-22 07:48 059 23.9
2014-Apr-22 07:33 095 0 gusting 2 24.4
2014-Apr-22 07:18 086 24.4
2014-Apr-22 07:03 100 25.0
2014-Apr-22 06:49 102 0 gusting 2 25.0
2014-Apr-22 06:33 060 25.0
2014-Apr-22 06:18 078 25.0
2014-Apr-22 06:03 083 2 gusting 6 25.6
2014-Apr-22 05:48 100 0 gusting 3 25.6
2014-Apr-22 05:33 136 1 gusting 5 26.1
2014-Apr-22 05:18 136 1 gusting 4 26.1
2014-Apr-22 05:03 115 1 gusting 6 25.6
2014-Apr-22 04:48 160 0 gusting 4 25.6
2014-Apr-22 04:33 162 0 gusting 5 25.6
2014-Apr-22 04:18 187 25.0
2014-Apr-22 04:03 203 1 gusting 3 24.4
2014-Apr-22 03:48 146 24.4
2014-Apr-22 03:33 110 0 gusting 4 23.9
2014-Apr-22 03:18 111 2 gusting 7 24.4
2014-Apr-22 03:03 110 3 gusting 6 24.4
2014-Apr-22 02:48 098 4 gusting 7 25.0
2014-Apr-22 02:33 115 3 gusting 9 26.1
2014-Apr-22 02:18 131 3 gusting 7 26.1
2014-Apr-22 02:03 149 2 gusting 7 26.1
2014-Apr-22 01:48 140 2 gusting 8 26.7
2014-Apr-22 01:33 118 2 gusting 6 27.2
2014-Apr-22 01:18 157 2 gusting 6 26.7
2014-Apr-22 01:03 107 3 gusting 7 26.7
2014-Apr-22 00:48 064 1 gusting 6 26.7
2014-Apr-22 00:33 072 2 gusting 6 26.7
2014-Apr-22 00:18 126 2 gusting 9 26.7
2014-Apr-22 00:03 104 2 gusting 8 27.2
2014-Apr-21 23:49 147 4 gusting 9 26.7
2014-Apr-21 23:33 192 3 gusting 8 26.1
2014-Apr-21 23:17 104 4 gusting 9 25.0
2014-Apr-21 23:02 144 2 gusting 6 24.4
2014-Apr-21 22:47 149 1 gusting 4 23.9
2014-Apr-21 22:32 149 0 gusting 3 22.8
2014-Apr-21 22:02 183 1 gusting 3 21.7
2014-Apr-21 21:47 154 21.1
2014-Apr-21 21:32 178 20.0
2014-Apr-21 21:17 176 20.0
2014-Apr-21 21:02 183 19.4
2014-Apr-21 20:47 187 19.4
2014-Apr-21 20:32 203 19.4
2014-Apr-21 20:17 196 0 gusting 2 19.4
2014-Apr-21 20:02 190 19.4
2014-Apr-21 19:47 202 18.9
2014-Apr-21 19:32 176 18.9
2014-Apr-21 19:17 211 18.3
2014-Apr-21 19:02 211 18.9
2014-Apr-21 18:47 218 18.9
2014-Apr-21 18:32 190 18.9
2014-Apr-21 18:17 185 19.4
2014-Apr-21 18:02 192 19.4
2014-Apr-21 17:47 159 19.4
2014-Apr-21 17:32 170 19.4
2014-Apr-21 17:17 164 19.4
2014-Apr-21 17:02 195 19.4
2014-Apr-21 16:47 183 19.4
2014-Apr-21 16:32 192 20.0
2014-Apr-21 16:17 154 20.0
2014-Apr-21 16:01 156 20.0
2014-Apr-21 15:46 145 20.0
2014-Apr-21 15:31 139 20.6
2014-Apr-21 15:16 163 0 gusting 2 20.6
2014-Apr-21 15:01 140 0 gusting 3 20.6
2014-Apr-21 14:46 185 0 gusting 3 20.6
2014-Apr-21 14:31 156 0 gusting 2 20.6
2014-Apr-21 14:16 163 0 gusting 3 21.1
2014-Apr-21 14:01 145 0 gusting 3 21.1
2014-Apr-21 13:46 130 0 gusting 2 21.1
2014-Apr-21 13:31 163 21.1
2014-Apr-21 13:16 184 0 gusting 2 21.1
2014-Apr-21 13:01 136 1 gusting 3 21.1
2014-Apr-21 12:46 160 21.1
2014-Apr-21 12:31 140 21.7
2014-Apr-21 12:16 144 21.7
2014-Apr-21 12:01 144 0 gusting 1 22.2
2014-Apr-21 11:46 145 22.8
2014-Apr-21 11:31 133 0 gusting 2 23.3
2014-Apr-21 11:16 129 0 gusting 5 23.9
2014-Apr-21 11:01 102 1 gusting 5 23.9
2014-Apr-21 10:46 105 1 gusting 6 24.4
2014-Apr-21 10:31 126 4 gusting 9 24.4
2014-Apr-21 10:16 117 1 gusting 6 25.0
2014-Apr-21 10:01 082 3 gusting 9 25.0
2014-Apr-21 09:46 159 3 gusting 7 25.0
2014-Apr-21 09:31 098 2 gusting 6 25.0
2014-Apr-21 09:16 087 3 gusting 10 25.0
2014-Apr-21 09:01 128 4 gusting 7 25.0